TimeCST,TemperatureF,Dew PointF,Humidity,Sea Level PressureIn,VisibilityMPH,Wind Direction,Wind SpeedMPH,Gust SpeedMPH,PrecipitationIn,Events,Conditions,WindDirDegrees,DateUTC
12:15 AM,26.6,23.0,86,30.26,10.0,North,5.8,-,N/A,,Overcast,360,2012-12-26 06:15:00
12:35 AM,26.6,23.0,86,30.25,10.0,NNE,4.6,-,N/A,,Overcast,30,2012-12-26 06:35:00
12:55 AM,30.2,23.0,75,30.25,10.0,ENE,11.5,16.1,N/A,,Overcast,70,2012-12-26 06:55:00
1:15 AM,30.2,23.0,75,30.25,10.0,ENE,12.7,17.3,N/A,,Overcast,70,2012-12-26 07:15:00
1:35 AM,30.2,23.0,75,30.24,10.0,ENE,9.2,18.4,N/A,,Overcast,60,2012-12-26 07:35:00
1:55 AM,30.2,21.2,69,30.24,10.0,ENE,9.2,-,N/A,,Overcast,70,2012-12-26 07:55:00
2:15 AM,30.2,21.2,69,30.24,10.0,ENE,13.8,19.6,N/A,,Overcast,60,2012-12-26 08:15:00
2:35 AM,30.2,21.2,69,30.23,10.0,NE,12.7,23.0,N/A,,Overcast,50,2012-12-26 08:35:00
2:55 AM,30.2,21.2,69,30.23,10.0,ENE,11.5,19.6,N/A,,Overcast,60,2012-12-26 08:55:00
3:15 AM,28.4,21.2,74,30.22,10.0,NE,12.7,19.6,N/A,,Overcast,50,2012-12-26 09:15:00
3:35 AM,28.4,21.2,74,30.21,10.0,ENE,11.5,19.6,N/A,,Overcast,60,2012-12-26 09:35:00
3:55 AM,28.4,19.4,69,30.21,10.0,ENE,10.4,24.2,N/A,,Overcast,60,2012-12-26 09:55:00
4:15 AM,28.4,19.4,69,30.21,10.0,ENE,13.8,18.4,N/A,,Overcast,60,2012-12-26 10:15:00
4:35 AM,28.4,19.4,69,30.20,10.0,NE,11.5,-,N/A,,Overcast,50,2012-12-26 10:35:00
4:55 AM,28.4,19.4,69,30.20,10.0,NE,11.5,19.6,N/A,,Overcast,40,2012-12-26 10:55:00
5:15 AM,28.4,19.4,69,30.18,10.0,NE,13.8,23.0,N/A,,Overcast,50,2012-12-26 11:15:00
5:35 AM,28.4,19.4,69,30.18,10.0,NE,10.4,18.4,N/A,,Overcast,40,2012-12-26 11:35:00
5:55 AM,28.4,19.4,69,30.18,10.0,NE,11.5,19.6,N/A,,Overcast,50,2012-12-26 11:55:00
6:45 AM,28.4,19.4,69,30.17,10.0,NE,13.8,21.9,N/A,,Overcast,40,2012-12-26 12:45:00
7:45 AM,28.4,21.2,74,30.13,10.0,NE,12.7,19.6,N/A,,Overcast,40,2012-12-26 13:45:00
8:45 AM,28.4,21.2,74,30.14,10.0,NE,15.0,23.0,N/A,,Overcast,50,2012-12-26 14:45:00
9:45 AM,30.2,21.2,69,30.14,10.0,NE,17.3,24.2,N/A,,Overcast,40,2012-12-26 15:45:00
10:45 AM,28.4,21.2,74,30.13,10.0,NE,13.8,25.3,N/A,,Overcast,40,2012-12-26 16:45:00
11:45 AM,28.4,19.4,69,30.11,10.0,NNE,18.4,33.4,N/A,,Overcast,30,2012-12-26 17:45:00
12:45 PM,30.2,21.2,69,30.08,10.0,NNE,16.1,25.3,N/A,,Overcast,30,2012-12-26 18:45:00
1:45 PM,30.2,21.2,69,30.06,10.0,NNE,20.7,29.9,N/A,,Overcast,20,2012-12-26 19:45:00
2:45 PM,30.2,19.4,64,30.06,10.0,NNE,17.3,25.3,N/A,,Overcast,20,2012-12-26 20:45:00
3:45 PM,30.2,21.2,69,30.07,10.0,North,15.0,24.2,N/A,,Mostly Cloudy,350,2012-12-26 21:45:00
4:45 PM,28.4,21.2,74,30.09,10.0,NNW,13.8,18.4,N/A,,Overcast,340,2012-12-26 22:45:00
5:45 PM,26.6,21.2,80,30.10,10.0,North,12.7,19.6,N/A,,Overcast,360,2012-12-26 23:45:00
6:45 PM,26.6,19.4,74,30.11,10.0,North,12.7,19.6,N/A,,Overcast,350,2012-12-27 00:45:00
7:45 PM,26.6,19.4,74,30.11,10.0,NNW,12.7,17.3,N/A,,Overcast,340,2012-12-27 01:45:00
8:15 PM,26.6,19.4,74,30.10,10.0,North,15.0,20.7,N/A,,Overcast,350,2012-12-27 02:15:00
8:35 PM,26.6,19.4,74,30.10,10.0,NNW,12.7,-,N/A,,Overcast,340,2012-12-27 02:35:00
8:45 PM,24.8,19.4,80,30.10,10.0,NNW,15.0,-,N/A,,Overcast,340,2012-12-27 02:45:00
8:55 PM,26.6,19.4,74,30.10,10.0,NNW,16.1,19.6,N/A,,Overcast,340,2012-12-27 02:55:00
9:15 PM,26.6,19.4,74,30.10,10.0,North,17.3,-,N/A,,Mostly Cloudy,350,2012-12-27 03:15:00
9:35 PM,26.6,21.2,80,30.10,10.0,North,13.8,-,N/A,,Overcast,350,2012-12-27 03:35:00
9:55 PM,26.6,19.4,74,30.11,10.0,NNW,16.1,-,N/A,,Overcast,340,2012-12-27 03:55:00
10:15 PM,26.6,19.4,74,30.11,10.0,North,13.8,-,N/A,,Mostly Cloudy,350,2012-12-27 04:15:00
10:35 PM,26.6,19.4,74,30.11,10.0,North,11.5,-,N/A,,Mostly Cloudy,350,2012-12-27 04:35:00
10:55 PM,26.6,21.2,80,30.11,10.0,North,12.7,17.3,N/A,,Overcast,350,2012-12-27 04:55:00
11:15 PM,26.6,21.2,80,30.11,10.0,NNW,11.5,-,N/A,,Overcast,340,2012-12-27 05:15:00
11:35 PM,26.6,21.2,80,30.11,10.0,NNW,10.4,-,N/A,,Overcast,340,2012-12-27 05:35:00
11:55 PM,26.6,21.2,80,30.11,10.0,NNW,10.4,-,N/A,,Overcast,340,2012-12-27 05:55:00